,,,PA_Meas_PMT16A,,PR_Meas_QMR101_102,,RH_Meas_QMH101,,SR_Meas_QMS101,,TA_Meas_QMH101,,GenWind,,GenWind,
date,time,status,PA,status,PR,status,RH,status,SR,status,TA,status,DirAvg,status,SpdAvg,
2010-12-07, 00:00:04,VALID,996.953,VALID,0,VALID,91.5478,VALID,0,VALID,24.3062,VALID,59,VALID,1.12305,
2010-12-07, 00:01:04,VALID,996.932,VALID,0,VALID,91.5554,VALID,0,VALID,24.308,VALID,52,VALID,0.915234,
2010-12-07, 00:02:04,VALID,996.93,VALID,0,VALID,91.5936,VALID,0,VALID,24.2866,VALID,44,VALID,0.900781,
2010-12-07, 00:03:04,VALID,996.894,VALID,0,VALID,91.6012,VALID,0,VALID,24.2671,VALID,44,VALID,0.833203,
2010-12-07, 00:04:04,VALID,996.872,VALID,0,VALID,91.6088,VALID,0,VALID,24.2671,VALID,39,VALID,0.841406,
2010-12-07, 00:05:04,VALID,996.834,VALID,0,VALID,91.6088,VALID,0,VALID,24.2671,VALID,36,VALID,0.709375,
2010-12-07, 00:06:04,VALID,996.833,VALID,0,VALID,91.647,VALID,0,VALID,24.2458,VALID,36,VALID,0.666016,
2010-12-07, 00:07:04,VALID,996.819,VALID,0,VALID,91.6623,VALID,0,VALID,24.2476,VALID,36,VALID,0.608984,
2010-12-07, 00:08:04,VALID,996.787,VALID,0,VALID,91.6851,VALID,0,VALID,24.2476,VALID,36,VALID,0.605859,
2010-12-07, 00:09:04,VALID,996.834,VALID,0,VALID,91.6699,VALID,0,VALID,24.2281,VALID,36,VALID,0.594531,
2010-12-07, 00:10:04,VALID,996.811,VALID,0,VALID,91.7004,VALID,0,VALID,24.2281,VALID,36,VALID,0.551172,
2010-12-07, 00:11:04,VALID,996.793,VALID,0,VALID,91.7233,VALID,0,VALID,24.2086,VALID,36,VALID,0.514063,
2010-12-07, 00:12:04,VALID,996.782,VALID,0,VALID,91.7538,VALID,0,VALID,24.2281,VALID,36,VALID,0.532031,
2010-12-07, 00:13:04,VALID,996.787,VALID,0,VALID,91.8072,VALID,0,VALID,24.2086,VALID,51,VALID,0.852734,
2010-12-07, 00:14:04,VALID,996.784,VALID,0,VALID,91.8301,VALID,0,VALID,24.2086,VALID,54,VALID,1.01523,
2010-12-07, 00:15:04,VALID,996.768,VALID,0,VALID,91.853,VALID,0,VALID,24.2086,VALID,57,VALID,0.809375,
2010-12-07, 00:16:04,VALID,996.78,VALID,0,VALID,91.8759,VALID,0,VALID,24.2495,VALID,68,VALID,1.09141,
2010-12-07, 00:17:04,VALID,996.801,VALID,0,VALID,91.914,VALID,0,VALID,24.2281,VALID,54,VALID,1.35156,
2010-12-07, 00:18:04,VALID,996.729,VALID,0,VALID,91.9217,VALID,0,VALID,24.2086,VALID,60,VALID,1.23398,
2010-12-07, 00:19:04,VALID,996.725,VALID,0,VALID,91.9445,VALID,0,VALID,24.2281,VALID,62,VALID,1.13984,
2010-12-07, 00:20:04,VALID,996.711,VALID,0,VALID,91.9674,VALID,0,VALID,24.2476,VALID,56,VALID,1.26406,
2010-12-07, 00:21:04,VALID,996.688,VALID,0,VALID,91.9751,VALID,0,VALID,24.2281,VALID,56,VALID,1.29336,
2010-12-07, 00:22:04,VALID,996.698,VALID,0,VALID,92.0056,VALID,0,VALID,24.269,VALID,58,VALID,1.14336,
2010-12-07, 00:23:04,VALID,996.678,VALID,0,VALID,92.0056,VALID,0,VALID,24.269,VALID,61,VALID,0.760156,
2010-12-07, 00:24:04,VALID,996.619,VALID,0,VALID,92.0209,VALID,0,VALID,24.2885,VALID,61,VALID,0.501172,
2010-12-07, 00:25:04,VALID,996.599,VALID,0,VALID,91.998,VALID,0,VALID,24.2476,VALID,80,VALID,0.848828,
2010-12-07, 00:26:04,VALID,996.56,VALID,0,VALID,91.9903,VALID,0,VALID,24.269,VALID,80,VALID,0.401953,
2010-12-07, 00:27:04,VALID,996.546,VALID,0,VALID,91.998,VALID,0,VALID,24.2885,VALID,84,VALID,0.55625,
2010-12-07, 00:28:04,VALID,996.52,VALID,0,VALID,91.9827,VALID,0,VALID,24.2476,VALID,84,VALID,0.305078,
2010-12-07, 00:29:04,VALID,996.497,VALID,0,VALID,91.9827,VALID,0,VALID,24.2281,VALID,84,VALID,0.139062,
2010-12-07, 00:30:04,VALID,996.509,VALID,0,VALID,91.9674,VALID,0,VALID,24.2299,VALID,84,VALID,0.399609,
2010-12-07, 00:31:04,VALID,996.479,VALID,0,VALID,91.9903,VALID,0,VALID,24.2281,VALID,84,VALID,0.625781,
2010-12-07, 00:32:04,VALID,996.483,VALID,0,VALID,91.9751,VALID,0,VALID,24.2281,VALID,84,VALID,0.541406,
2010-12-07, 00:33:04,VALID,996.496,VALID,0,VALID,91.9903,VALID,0,VALID,24.2476,VALID,124,VALID,0.611328,
2010-12-07, 00:34:04,VALID,996.464,VALID,0,VALID,92.0132,VALID,0,VALID,24.2476,VALID,124,VALID,0.816797,
2010-12-07, 00:35:04,VALID,996.466,VALID,0,VALID,91.9903,VALID,0,VALID,24.269,VALID,127,VALID,0.840234,
2010-12-07, 00:36:04,VALID,996.466,VALID,0,VALID,91.9827,VALID,0,VALID,24.2476,VALID,135,VALID,0.9375,
2010-12-07, 00:37:04,VALID,996.474,VALID,0,VALID,91.9598,VALID,0,VALID,24.2671,VALID,141,VALID,1.09297,
2010-12-07, 00:38:04,VALID,996.455,VALID,0,VALID,91.9293,VALID,0,VALID,24.2671,VALID,141,VALID,0.953516,
2010-12-07, 00:39:04,VALID,996.453,VALID,0,VALID,91.914,VALID,0,VALID,24.2866,VALID,144,VALID,0.783984,
2010-12-07, 00:40:04,VALID,996.419,VALID,0,VALID,91.8759,VALID,0,VALID,24.2866,VALID,144,VALID,0.684766,
2010-12-07, 00:41:04,VALID,996.417,VALID,0,VALID,91.8301,VALID,0,VALID,24.308,VALID,138,VALID,0.796484,
2010-12-07, 00:42:04,VALID,996.414,VALID,0,VALID,91.7767,VALID,0,VALID,24.3062,VALID,128,VALID,0.476172,
2010-12-07, 00:43:04,VALID,996.432,VALID,0,VALID,91.7462,VALID,0,VALID,24.2866,VALID,128,VALID,0.205078,
2010-12-07, 00:44:04,VALID,996.436,VALID,0,VALID,91.6851,VALID,0,VALID,24.2866,VALID,128,VALID,0.381641,
2010-12-07, 00:45:04,VALID,996.427,VALID,0,VALID,91.6623,VALID,0,VALID,24.2866,VALID,128,VALID,0.679297,
2010-12-07, 00:46:04,VALID,996.412,VALID,0,VALID,91.647,VALID,0,VALID,24.2866,VALID,128,VALID,0.595703,
2010-12-07, 00:47:04,VALID,996.411,VALID,0,VALID,91.647,VALID,0,VALID,24.3062,VALID,128,VALID,0.324219,
2010-12-07, 00:48:04,VALID,996.417,VALID,0,VALID,91.6546,VALID,0,VALID,24.3062,VALID,128,VALID,0,
2010-12-07, 00:49:04,VALID,996.401,VALID,0,VALID,91.6394,VALID,0,VALID,24.3062,VALID,128,VALID,0.347656,
2010-12-07, 00:50:04,VALID,996.422,VALID,0,VALID,91.6623,VALID,0,VALID,24.3257,VALID,128,VALID,0.0425781,
2010-12-07, 00:51:04,VALID,996.41,VALID,0,VALID,91.6928,VALID,0,VALID,24.3062,VALID,128,VALID,0.251953,
2010-12-07, 00:52:04,VALID,996.449,VALID,0,VALID,91.7385,VALID,0,VALID,24.3257,VALID,128,VALID,0.461719,
2010-12-07, 00:53:04,VALID,996.452,VALID,0,VALID,91.7614,VALID,0,VALID,24.3257,VALID,128,VALID,0.530859,
2010-12-07, 00:54:04,VALID,996.465,VALID,0,VALID,91.8072,VALID,0,VALID,24.3257,VALID,128,VALID,0.426562,
2010-12-07, 00:55:04,VALID,996.443,VALID,0,VALID,91.8454,VALID,0,VALID,24.3452,VALID,128,VALID,0,
2010-12-07, 00:56:04,VALID,996.401,VALID,0,VALID,91.8759,VALID,0,VALID,24.3452,VALID,128,VALID,0.135937,
2010-12-07, 00:57:04,VALID,996.404,VALID,0,VALID,91.9064,VALID,0,VALID,24.3647,VALID,128,VALID,0.0136719,
2010-12-07, 00:58:04,VALID,996.429,VALID,0,VALID,91.9369,VALID,0,VALID,24.3647,VALID,128,VALID,0.489062,
2010-12-07, 00:59:04,VALID,996.415,VALID,0,VALID,91.9598,VALID,0,VALID,24.3842,VALID,128,VALID,0.414844,
2010-12-07, 01:00:04,VALID,996.37,VALID,0,VALID,91.9827,VALID,0,VALID,24.3842,VALID,128,VALID,0.467578,
2010-12-07, 01:01:04,VALID,996.341,VALID,0,VALID,91.9827,VALID,0,VALID,24.4037,VALID,133,VALID,0.528125,
2010-12-07, 01:02:04,VALID,996.326,VALID,0,VALID,91.9903,VALID,0,VALID,24.4037,VALID,133,VALID,0.449219,
2010-12-07, 01:03:04,VALID,996.321,VALID,0,VALID,92.0056,VALID,0,VALID,24.4037,VALID,146,VALID,0.491797,
2010-12-07, 01:04:04,VALID,996.31,VALID,0,VALID,91.9751,VALID,0,VALID,24.4233,VALID,146,VALID,0.467187,
2010-12-07, 01:05:04,VALID,996.283,VALID,0,VALID,91.9598,VALID,0,VALID,24.4428,VALID,146,VALID,0.514844,
2010-12-07, 01:06:04,VALID,996.25,VALID,0,VALID,91.8988,VALID,0,VALID,24.4428,VALID,146,VALID,0.578516,
2010-12-07, 01:07:04,VALID,996.25,VALID,0,VALID,91.8606,VALID,0,VALID,24.4623,VALID,146,VALID,0.360156,
2010-12-07, 01:08:04,VALID,996.232,VALID,0,VALID,91.7538,VALID,0,VALID,24.4623,VALID,146,VALID,0.347266,
2010-12-07, 01:09:04,VALID,996.254,VALID,0,VALID,91.6775,VALID,0,VALID,24.4623,VALID,146,VALID,0.244531,
2010-12-07, 01:10:04,VALID,996.211,VALID,0,VALID,91.6088,VALID,0,VALID,24.4995,VALID,146,VALID,0,
2010-12-07, 01:11:04,VALID,996.208,VALID,0,VALID,91.5554,VALID,0,VALID,24.4995,VALID,146,VALID,0,
2010-12-07, 01:12:04,VALID,996.207,VALID,0,VALID,91.5173,VALID,0,VALID,24.519,VALID,146,VALID,0.34375,
2010-12-07, 01:13:04,VALID,996.193,VALID,0,VALID,91.4791,VALID,0,VALID,24.519,VALID,146,VALID,0.599219,
2010-12-07, 01:14:04,VALID,996.166,VALID,0,VALID,91.3952,VALID,0,VALID,24.519,VALID,146,VALID,0.781641,
2010-12-07, 01:15:04,VALID,996.143,VALID,0,VALID,91.2731,VALID,0,VALID,24.5794,VALID,146,VALID,0.791016,
2010-12-07, 01:16:04,VALID,996.134,VALID,0,VALID,91.1663,VALID,0,VALID,24.5775,VALID,145,VALID,0.883984,
2010-12-07, 01:17:04,VALID,996.102,VALID,0,VALID,91.0977,VALID,0,VALID,24.6184,VALID,145,VALID,0.966016,
2010-12-07, 01:18:04,VALID,996.154,VALID,0,VALID,91.0748,VALID,0,VALID,24.6166,VALID,145,VALID,0.786719,
2010-12-07, 01:19:04,VALID,996.121,VALID,0,VALID,91.0595,VALID,0,VALID,24.6361,VALID,145,VALID,0.704687,
2010-12-07, 01:20:04,VALID,996.137,VALID,0,VALID,91.0366,VALID,0,VALID,24.6166,VALID,145,VALID,1.05664,
2010-12-07, 01:21:04,VALID,996.119,VALID,0,VALID,91.0519,VALID,0,VALID,24.6556,VALID,127,VALID,1.09297,
2010-12-07, 01:22:04,VALID,996.125,VALID,0,VALID,91.0824,VALID,0,VALID,24.6556,VALID,127,VALID,0.696484,
2010-12-07, 01:23:04,VALID,996.095,VALID,0,VALID,91.09,VALID,0,VALID,24.6361,VALID,127,VALID,0.561719,
2010-12-07, 01:24:04,VALID,996.075,VALID,0,VALID,91.1434,VALID,0,VALID,24.6166,VALID,126,VALID,0.516406,
2010-12-07, 01:25:04,VALID,996.053,VALID,0,VALID,91.1663,VALID,0,VALID,24.6361,VALID,119,VALID,0.494531,
2010-12-07, 01:26:04,VALID,996.045,VALID,0,VALID,91.2121,VALID,0,VALID,24.6166,VALID,89,VALID,0.841797,
2010-12-07, 01:27:04,VALID,996.04,VALID,0,VALID,91.2731,VALID,0,VALID,24.5971,VALID,81,VALID,0.813672,
2010-12-07, 01:28:04,VALID,996.028,VALID,0,VALID,91.3342,VALID,0,VALID,24.5989,VALID,79,VALID,0.883203,
2010-12-07, 01:29:04,VALID,996.043,VALID,0,VALID,91.4105,VALID,0,VALID,24.5775,VALID,96,VALID,0.959766,
2010-12-07, 01:30:04,VALID,996.023,VALID,0,VALID,91.4715,VALID,0,VALID,24.5775,VALID,97,VALID,1.00312,
2010-12-07, 01:31:04,VALID,996.009,VALID,0,VALID,91.5326,VALID,0,VALID,24.558,VALID,78,VALID,1.06484,
2010-12-07, 01:32:04,VALID,996.018,VALID,0,VALID,91.586,VALID,0,VALID,24.558,VALID,99,VALID,1.08594,
2010-12-07, 01:33:04,VALID,996.034,VALID,0,VALID,91.6317,VALID,0,VALID,24.5794,VALID,88,VALID,0.707031,
2010-12-07, 01:34:04,VALID,996.017,VALID,0,VALID,91.7004,VALID,0,VALID,24.5794,VALID,87,VALID,0.998828,
2010-12-07, 01:35:04,VALID,996.013,VALID,0,VALID,91.7309,VALID,0,VALID,24.5775,VALID,87,VALID,0.522266,
2010-12-07, 01:36:04,VALID,995.958,VALID,0,VALID,91.7462,VALID,0,VALID,24.5775,VALID,83,VALID,1.11953,
2010-12-07, 01:37:04,VALID,995.949,VALID,0,VALID,91.7767,VALID,0,VALID,24.5775,VALID,75,VALID,0.911719,
2010-12-07, 01:38:04,VALID,995.958,VALID,0,VALID,91.7538,VALID,0,VALID,24.558,VALID,87,VALID,0.682031,
2010-12-07, 01:39:04,VALID,995.937,VALID,0,VALID,91.7691,VALID,0,VALID,24.558,VALID,86,VALID,0.685156,
2010-12-07, 01:40:04,VALID,995.957,VALID,0,VALID,91.792,VALID,0,VALID,24.5385,VALID,86,VALID,0.148438,
2010-12-07, 01:41:04,VALID,995.916,VALID,0,VALID,91.7996,VALID,0.112286,VALID,24.558,VALID,86,VALID,0,
2010-12-07, 01:42:04,VALID,995.911,VALID,0,VALID,91.792,VALID,0,VALID,24.558,VALID,86,VALID,0.396484,
2010-12-07, 01:43:04,VALID,995.943,VALID,0,VALID,91.8301,VALID,0.112286,VALID,24.558,VALID,90,VALID,0.401953,
2010-12-07, 01:44:04,VALID,995.9,VALID,0,VALID,91.8225,VALID,0,VALID,24.5385,VALID,128,VALID,0.810938,
2010-12-07, 01:45:04,VALID,995.91,VALID,0,VALID,91.792,VALID,0,VALID,24.558,VALID,123,VALID,0.751953,
2010-12-07, 01:46:04,VALID,995.921,VALID,0,VALID,91.7996,VALID,0,VALID,24.558,VALID,123,VALID,0.729297,
2010-12-07, 01:47:04,VALID,995.921,VALID,0,VALID,91.7538,VALID,0,VALID,24.5794,VALID,123,VALID,0.460156,
2010-12-07, 01:48:04,VALID,995.92,VALID,0,VALID,91.7462,VALID,0,VALID,24.5775,VALID,123,VALID,0.673828,
2010-12-07, 01:49:04,VALID,995.913,VALID,0,VALID,91.708,VALID,0,VALID,24.5775,VALID,125,VALID,1.0418,
2010-12-07, 01:50:04,VALID,995.934,VALID,0,VALID,91.6241,VALID,0,VALID,24.558,VALID,131,VALID,1.21797,
2010-12-07, 01:51:04,VALID,995.935,VALID,0,VALID,91.5554,VALID,0.112286,VALID,24.5775,VALID,134,VALID,1.07539,
2010-12-07, 01:52:04,VALID,995.955,VALID,0,VALID,91.4944,VALID,0,VALID,24.558,VALID,134,VALID,1.15273,
2010-12-07, 01:53:04,VALID,995.98,VALID,0,VALID,91.4257,VALID,0,VALID,24.558,VALID,140,VALID,1.10469,
2010-12-07, 01:54:04,VALID,995.961,VALID,0,VALID,91.3876,VALID,0,VALID,24.558,VALID,140,VALID,1.03437,
2010-12-07, 01:55:04,VALID,995.997,VALID,0,VALID,91.38,VALID,0,VALID,24.558,VALID,140,VALID,1.13945,
2010-12-07, 01:56:04,VALID,995.98,VALID,0,VALID,91.3418,VALID,0.112286,VALID,24.5599,VALID,134,VALID,1.07813,
2010-12-07, 01:57:04,VALID,995.991,VALID,0,VALID,91.3418,VALID,0,VALID,24.5385,VALID,135,VALID,1.34922,
2010-12-07, 01:58:04,VALID,995.98,VALID,0,VALID,91.3876,VALID,0.112286,VALID,24.519,VALID,135,VALID,0.946484,
2010-12-07, 01:59:04,VALID,995.977,VALID,0,VALID,91.3952,VALID,0,VALID,24.5385,VALID,135,VALID,0.732813,
2010-12-07, 02:00:04,VALID,995.971,VALID,0,VALID,91.3952,VALID,0.112286,VALID,24.4995,VALID,135,VALID,0.159766,
2010-12-07, 02:01:04,VALID,995.976,VALID,0,VALID,91.441,VALID,0,VALID,24.4995,VALID,135,VALID,0.0722656,
2010-12-07, 02:02:04,VALID,995.95,VALID,0,VALID,91.4334,VALID,0,VALID,24.48,VALID,135,VALID,0.244922,
2010-12-07, 02:03:04,VALID,996.003,VALID,0,VALID,91.441,VALID,0,VALID,24.4604,VALID,135,VALID,0.378906,
2010-12-07, 02:04:04,VALID,996.01,VALID,0,VALID,91.5097,VALID,0,VALID,24.48,VALID,135,VALID,0.228516,
2010-12-07, 02:05:04,VALID,996.029,VALID,0,VALID,91.5478,VALID,0.112286,VALID,24.48,VALID,135,VALID,0,
2010-12-07, 02:06:04,VALID,996.02,VALID,0,VALID,91.586,VALID,0,VALID,24.4604,VALID,135,VALID,0,
2010-12-07, 02:07:04,VALID,995.992,VALID,0,VALID,91.6088,VALID,0,VALID,24.48,VALID,135,VALID,0.247656,
2010-12-07, 02:08:04,VALID,996.035,VALID,0,VALID,91.6394,VALID,0,VALID,24.4409,VALID,135,VALID,0.493359,
2010-12-07, 02:09:04,VALID,996.017,VALID,0,VALID,91.6546,VALID,0,VALID,24.4409,VALID,135,VALID,0.422656,
2010-12-07, 02:10:04,VALID,996.013,VALID,0,VALID,91.708,VALID,0,VALID,24.4623,VALID,135,VALID,0.460938,
2010-12-07, 02:11:04,VALID,996.03,VALID,0,VALID,91.7309,VALID,0,VALID,24.4818,VALID,135,VALID,0.296094,
2010-12-07, 02:12:04,VALID,996.029,VALID,0,VALID,91.7996,VALID,0,VALID,24.4623,VALID,135,VALID,0.2375,
2010-12-07, 02:13:04,VALID,996.013,VALID,0,VALID,91.8301,VALID,0,VALID,24.5032,VALID,135,VALID,0,
2010-12-07, 02:14:04,VALID,996.018,VALID,0,VALID,91.8454,VALID,0,VALID,24.5013,VALID,135,VALID,0,
2010-12-07, 02:15:04,VALID,996.024,VALID,0,VALID,91.8759,VALID,0,VALID,24.5209,VALID,135,VALID,0,
2010-12-07, 02:16:04,VALID,996.011,VALID,0,VALID,91.8759,VALID,0,VALID,24.5209,VALID,135,VALID,0,
2010-12-07, 02:17:04,VALID,996.009,VALID,0,VALID,91.8835,VALID,0,VALID,24.5013,VALID,135,VALID,0,
2010-12-07, 02:18:04,VALID,996.012,VALID,0,VALID,91.8683,VALID,0,VALID,24.5013,VALID,135,VALID,0,
2010-12-07, 02:19:04,VALID,995.999,VALID,0,VALID,91.8911,VALID,0,VALID,24.5013,VALID,135,VALID,0,
2010-12-07, 02:20:04,VALID,995.995,VALID,0,VALID,91.8835,VALID,0,VALID,24.5013,VALID,135,VALID,0.185547,
2010-12-07, 02:21:04,VALID,996.018,VALID,0,VALID,91.9445,VALID,0,VALID,24.5618,VALID,315,VALID,0.596875,
2010-12-07, 02:22:04,VALID,995.983,VALID,0,VALID,91.9903,VALID,0,VALID,24.5599,VALID,315,VALID,0.0621094,
2010-12-07, 02:23:04,VALID,995.961,VALID,0,VALID,92.0285,VALID,0,VALID,24.5599,VALID,315,VALID,0.447656,
2010-12-07, 02:24:04,VALID,995.933,VALID,0,VALID,92.0209,VALID,0,VALID,24.5209,VALID,293,VALID,0.423438,
2010-12-07, 02:25:04,VALID,995.97,VALID,0,VALID,92.0132,VALID,0.112286,VALID,24.5385,VALID,293,VALID,0.139453,
2010-12-07, 02:26:04,VALID,995.913,VALID,0,VALID,92.0209,VALID,0,VALID,24.5385,VALID,324,VALID,0.498437,
2010-12-07, 02:27:04,VALID,995.925,VALID,0,VALID,91.9827,VALID,0,VALID,24.5385,VALID,333,VALID,0.188672,
2010-12-07, 02:28:04,VALID,995.878,VALID,0,VALID,91.9293,VALID,0,VALID,24.558,VALID,333,VALID,0.0609375,
2010-12-07, 02:29:04,VALID,995.879,VALID,0,VALID,91.914,VALID,0,VALID,24.558,VALID,339,VALID,0.573438,
2010-12-07, 02:30:04,VALID,995.871,VALID,0,VALID,91.8988,VALID,0,VALID,24.5775,VALID,6,VALID,0.891797,
2010-12-07, 02:31:04,VALID,995.868,VALID,0,VALID,91.853,VALID,0,VALID,24.5794,VALID,3,VALID,0.694141,
2010-12-07, 02:32:04,VALID,995.874,VALID,0,VALID,91.7996,VALID,0,VALID,24.5775,VALID,3,VALID,0.491406,
2010-12-07, 02:33:04,VALID,995.847,VALID,0,VALID,91.7385,VALID,0,VALID,24.5775,VALID,343,VALID,0.613281,
2010-12-07, 02:34:04,VALID,995.835,VALID,0,VALID,91.6928,VALID,0,VALID,24.6184,VALID,289,VALID,0.776563,
2010-12-07, 02:35:04,VALID,995.862,VALID,0,VALID,91.5936,VALID,0,VALID,24.6361,VALID,289,VALID,0.483203,
2010-12-07, 02:36:04,VALID,995.883,VALID,0,VALID,91.4868,VALID,0,VALID,24.6556,VALID,289,VALID,0.423828,
2010-12-07, 02:37:04,VALID,995.867,VALID,0,VALID,91.3952,VALID,0,VALID,24.716,VALID,289,VALID,0.680078,
2010-12-07, 02:38:04,VALID,995.898,VALID,0,VALID,91.3113,VALID,0,VALID,24.6946,VALID,289,VALID,0.253906,
2010-12-07, 02:39:04,VALID,995.911,VALID,0,VALID,91.2197,VALID,0.112286,VALID,24.6928,VALID,278,VALID,0.444922,
2010-12-07, 02:40:04,VALID,995.93,VALID,0,VALID,91.1206,VALID,0,VALID,24.7337,VALID,278,VALID,0.342578,
2010-12-07, 02:41:04,VALID,995.938,VALID,0,VALID,91.0443,VALID,0,VALID,24.7551,VALID,278,VALID,0.391016,
2010-12-07, 02:42:04,VALID,995.953,VALID,0,VALID,90.9909,VALID,0,VALID,24.7551,VALID,278,VALID,0.332422,
2010-12-07, 02:43:04,VALID,995.938,VALID,0,VALID,90.9756,VALID,0,VALID,24.7551,VALID,290,VALID,0.211719,
2010-12-07, 02:44:04,VALID,995.936,VALID,0,VALID,90.9374,VALID,0,VALID,24.7337,VALID,251,VALID,0.873047,
2010-12-07, 02:45:04,VALID,995.936,VALID,0,VALID,90.823,VALID,0,VALID,24.7941,VALID,286,VALID,0.477734,
2010-12-07, 02:46:04,VALID,995.983,VALID,0,VALID,90.6857,VALID,0,VALID,24.8117,VALID,278,VALID,1.1293,
2010-12-07, 02:47:04,VALID,995.968,VALID,0,VALID,90.5331,VALID,0,VALID,24.8527,VALID,266,VALID,0.783594,
2010-12-07, 02:48:04,VALID,995.991,VALID,0,VALID,90.3881,VALID,0,VALID,24.8917,VALID,282,VALID,0.611328,
2010-12-07, 02:49:04,VALID,995.988,VALID,0,VALID,90.3118,VALID,0,VALID,24.8703,VALID,272,VALID,0.857813,
2010-12-07, 02:50:04,VALID,995.962,VALID,0,VALID,90.2203,VALID,0,VALID,24.8703,VALID,284,VALID,1.21758,
2010-12-07, 02:51:04,VALID,995.995,VALID,0,VALID,90.1668,VALID,0,VALID,24.8917,VALID,284,VALID,1.13594,
2010-12-07, 02:52:04,VALID,995.996,VALID,0,VALID,90.1974,VALID,0,VALID,24.8508,VALID,275,VALID,0.817187,
2010-12-07, 02:53:04,VALID,995.984,VALID,0,VALID,90.2813,VALID,0,VALID,24.8508,VALID,250,VALID,0.754297,
2010-12-07, 02:54:04,VALID,995.984,VALID,0,VALID,90.3728,VALID,0,VALID,24.8527,VALID,251,VALID,0.653906,
2010-12-07, 02:55:04,VALID,995.984,VALID,0,VALID,90.4339,VALID,0,VALID,24.8117,VALID,250,VALID,0.5625,
2010-12-07, 02:56:04,VALID,995.975,VALID,0,VALID,90.4873,VALID,0,VALID,24.8117,VALID,218,VALID,0.612891,
2010-12-07, 02:57:04,VALID,995.96,VALID,0,VALID,90.5483,VALID,0,VALID,24.8136,VALID,217,VALID,0.558594,
2010-12-07, 02:58:04,VALID,995.945,VALID,0,VALID,90.5865,VALID,0,VALID,24.7922,VALID,221,VALID,0.517969,
2010-12-07, 02:59:04,VALID,995.956,VALID,0,VALID,90.6323,VALID,0,VALID,24.7941,VALID,228,VALID,1.0082,
2010-12-07, 03:00:04,VALID,995.989,VALID,0,VALID,90.6323,VALID,0,VALID,24.8136,VALID,225,VALID,0.835547,
2010-12-07, 03:01:04,VALID,995.968,VALID,0,VALID,90.6399,VALID,0,VALID,24.7941,VALID,247,VALID,0.35,
2010-12-07, 03:02:04,VALID,995.969,VALID,0,VALID,90.6704,VALID,0,VALID,24.7922,VALID,231,VALID,0.714844,
2010-12-07, 03:03:04,VALID,995.957,VALID,0,VALID,90.6933,VALID,0,VALID,24.7727,VALID,231,VALID,0.112109,
2010-12-07, 03:04:04,VALID,995.957,VALID,0,VALID,90.7162,VALID,0,VALID,24.7941,VALID,207,VALID,0.794141,
2010-12-07, 03:05:04,VALID,995.963,VALID,0,VALID,90.7314,VALID,0,VALID,24.7941,VALID,204,VALID,0.753516,
2010-12-07, 03:06:04,VALID,995.946,VALID,0,VALID,90.7314,VALID,0,VALID,24.7532,VALID,233,VALID,1.24805,
2010-12-07, 03:07:04,VALID,995.918,VALID,0,VALID,90.678,VALID,0,VALID,24.7532,VALID,220,VALID,0.964063,
2010-12-07, 03:08:04,VALID,995.918,VALID,0,VALID,90.5636,VALID,0,VALID,24.7532,VALID,221,VALID,1.21758,
2010-12-07, 03:09:04,VALID,995.898,VALID,0,VALID,90.5407,VALID,0,VALID,24.7727,VALID,219,VALID,0.901953,
2010-12-07, 03:10:04,VALID,995.873,VALID,0,VALID,90.556,VALID,0,VALID,24.7727,VALID,207,VALID,1.06562,
2010-12-07, 03:11:04,VALID,995.867,VALID,0,VALID,90.5178,VALID,0,VALID,24.7746,VALID,199,VALID,1.24297,
2010-12-07, 03:12:04,VALID,995.828,VALID,0,VALID,90.4263,VALID,0,VALID,24.7532,VALID,200,VALID,1.53164,
2010-12-07, 03:13:04,VALID,995.828,VALID,0,VALID,90.3576,VALID,0,VALID,24.7532,VALID,192,VALID,1.35391,
2010-12-07, 03:14:04,VALID,995.796,VALID,0,VALID,90.1821,VALID,0,VALID,24.7551,VALID,177,VALID,1.63437,
2010-12-07, 03:15:04,VALID,995.784,VALID,0,VALID,89.8769,VALID,0,VALID,24.7142,VALID,209,VALID,1.08672,
2010-12-07, 03:16:04,VALID,995.774,VALID,0,VALID,89.7243,VALID,0,VALID,24.7142,VALID,201,VALID,1.46875,
2010-12-07, 03:17:04,VALID,995.766,VALID,0,VALID,89.3963,VALID,0,VALID,24.6946,VALID,185,VALID,2.17422,
2010-12-07, 03:18:04,VALID,995.756,VALID,0,VALID,89.0606,VALID,0,VALID,24.6965,VALID,176,VALID,1.5832,
2010-12-07, 03:19:04,VALID,995.738,VALID,0,VALID,88.7477,VALID,0,VALID,24.6361,VALID,188,VALID,2.38945,
2010-12-07, 03:20:04,VALID,995.744,VALID,0,VALID,88.5799,VALID,0,VALID,24.6556,VALID,245,VALID,1.33789,
2010-12-07, 03:21:04,VALID,995.777,VALID,0,VALID,88.6257,VALID,0,VALID,24.6166,VALID,225,VALID,0.801953,
2010-12-07, 03:22:04,VALID,995.763,VALID,0,VALID,88.5341,VALID,0,VALID,24.6184,VALID,209,VALID,1.61953,
2010-12-07, 03:23:04,VALID,995.749,VALID,0,VALID,88.206,VALID,0,VALID,24.6184,VALID,202,VALID,1.37734,
2010-12-07, 03:24:04,VALID,995.77,VALID,0,VALID,88.2213,VALID,0,VALID,24.5775,VALID,222,VALID,1.00352,
2010-12-07, 03:25:04,VALID,995.732,VALID,0,VALID,88.1526,VALID,0,VALID,24.5599,VALID,201,VALID,0.966016,
2010-12-07, 03:26:04,VALID,995.747,VALID,0,VALID,88.1068,VALID,0,VALID,24.5404,VALID,201,VALID,1.09727,
2010-12-07, 03:27:04,VALID,995.734,VALID,0,VALID,87.9543,VALID,0,VALID,24.5599,VALID,201,VALID,1.4418,
2010-12-07, 03:28:04,VALID,995.719,VALID,0,VALID,87.6796,VALID,0,VALID,24.5618,VALID,191,VALID,1.01992,
2010-12-07, 03:29:04,VALID,995.685,VALID,0,VALID,87.6949,VALID,0,VALID,24.5599,VALID,182,VALID,1.17539,
2010-12-07, 03:30:04,VALID,995.696,VALID,0,VALID,87.5957,VALID,0,VALID,24.5209,VALID,192,VALID,1.29297,
2010-12-07, 03:31:04,VALID,995.697,VALID,0,VALID,87.6491,VALID,0,VALID,24.5404,VALID,189,VALID,1.03555,
2010-12-07, 03:32:04,VALID,995.718,VALID,0,VALID,87.8093,VALID,0,VALID,24.5209,VALID,202,VALID,1.32266,
2010-12-07, 03:33:04,VALID,995.732,VALID,0,VALID,87.733,VALID,0,VALID,24.5209,VALID,192,VALID,0.834766,
2010-12-07, 03:34:04,VALID,995.699,VALID,0,VALID,87.939,VALID,0,VALID,24.5013,VALID,181,VALID,0.675,
2010-12-07, 03:35:04,VALID,995.756,VALID,0,VALID,87.9237,VALID,0,VALID,24.4818,VALID,193,VALID,0.958594,
2010-12-07, 03:36:04,VALID,995.738,VALID,0,VALID,88.1832,VALID,0,VALID,24.4623,VALID,188,VALID,0.73125,
2010-12-07, 03:37:04,VALID,995.752,VALID,0,VALID,88.2823,VALID,0,VALID,24.4428,VALID,189,VALID,0.535937,
2010-12-07, 03:38:04,VALID,995.74,VALID,0,VALID,88.1908,VALID,0,VALID,24.4037,VALID,168,VALID,0.916406,
2010-12-07, 03:39:04,VALID,995.744,VALID,0,VALID,88.2366,VALID,0,VALID,24.3647,VALID,167,VALID,0.752734,
2010-12-07, 03:40:04,VALID,995.766,VALID,0,VALID,88.1755,VALID,0,VALID,24.3238,VALID,160,VALID,0.846094,
2010-12-07, 03:41:04,VALID,995.761,VALID,0,VALID,88.3129,VALID,0,VALID,24.2848,VALID,160,VALID,0.812109,
2010-12-07, 03:42:04,VALID,995.747,VALID,0,VALID,88.351,VALID,0,VALID,24.2653,VALID,160,VALID,0.878516,
2010-12-07, 03:43:04,VALID,995.738,VALID,0,VALID,88.4197,VALID,0,VALID,24.2458,VALID,160,VALID,0.794922,
2010-12-07, 03:44:04,VALID,995.751,VALID,0,VALID,88.4578,VALID,0,VALID,24.2263,VALID,160,VALID,0.775391,
2010-12-07, 03:45:04,VALID,995.8,VALID,0,VALID,88.5799,VALID,0,VALID,24.2263,VALID,160,VALID,1.02656,